This is the latest recevied weather packets stored in our database for station/object KI6SYE. If no packets are shown the sender has not sent any weather packets the latest 10 day(s).
| Time | Temp. | Humidity | Pressure | Rain* | Wind** | Luminosity | Snow |
|---|---|---|---|---|---|---|---|
| 1777921560 | 17.78° C | 73% | 1016 hPa | 0 mm | - | 832 W/m² | - |
| 1777921256 | 17.78° C | 74% | 1015.9 hPa | 0 mm | - | 913 W/m² | - |
| 1777920953 | 17.22° C | 75% | 1016 hPa | 0 mm | - | 764 W/m² | - |
| 1777920650 | 17.78° C | 72% | 1016.1 hPa | 0 mm | - | 711 W/m² | - |
| 1777920345 | 17.78° C | 72% | 1016.1 hPa | 0 mm | - | 832 W/m² | - |
| 1777920040 | 17.22° C | 74% | 1016.2 hPa | 0 mm | - | 468 W/m² | - |
| 1777919738 | 17.78° C | 74% | 1016.2 hPa | 0 mm | - | 427 W/m² | - |
| 1777919436 | 18.33° C | 73% | 1016.1 hPa | 0 mm | - | 719 W/m² | - |
| 1777919132 | 18.33° C | 73% | 1016.1 hPa | 0 mm | - | 739 W/m² | - |
| 1777918830 | 17.78° C | 74% | 1016.1 hPa | 0 mm | - | 814 W/m² | - |
| 1777918527 | 17.78° C | 73% | 1016.2 hPa | 0 mm | - | 838 W/m² | - |
| 1777918226 | 17.22° C | 76% | 1016.3 hPa | 0 mm | - | 795 W/m² | - |
| 1777917924 | 17.22° C | 77% | 1016.3 hPa | 0 mm | - | 804 W/m² | - |
| 1777917623 | 17.22° C | 76% | 1016 hPa | 0 mm | - | 527 W/m² | - |
| 1777917319 | 17.22° C | 75% | 1016.1 hPa | 0 mm | - | 537 W/m² | - |
| 1777917016 | 17.22° C | 76% | 1016.3 hPa | 0 mm | - | 762 W/m² | - |
| 1777916714 | 16.67° C | 77% | 1016.4 hPa | 0 mm | - | 642 W/m² | - |
| 1777916411 | 17.22° C | 76% | 1016 hPa | 0 mm | - | 496 W/m² | - |
| 1777916108 | 16.67° C | 78% | 1016.3 hPa | 0 mm | - | 449 W/m² | - |
| 1777915805 | 17.22° C | 76% | 1016.1 hPa | 0 mm | - | 519 W/m² | - |
| 1777915501 | 16.67° C | 76% | 1016 hPa | 0 mm | - | 777 W/m² | - |
| 1777915197 | 16.67° C | 76% | 1016.1 hPa | 0 mm | - | 533 W/m² | - |
| 1777914894 | 17.22° C | 75% | 1015.7 hPa | 0 mm | - | 305 W/m² | - |
| 1777914591 | 16.67° C | 76% | 1015.9 hPa | 0 mm | - | 627 W/m² | - |
| 1777914287 | 16.11° C | 77% | 1015.8 hPa | 0 mm | - | 611 W/m² | - |
* Rain latest hour (hover to see other rain measurements)
** Current wind speed in m/s (hover to see current wind gust speed)